Location: Fours
(44.3167°N, 6.7000°E)
Time: 23:04:56
(UTC+00:00)

Cosmos 2227 - Pass Details

Date: 16 October 2021
Orbit: 833 x 863 km, 71.0° (Epoch: 26 November)

Event Time Altitude Azimuth Distance (km) Brightness Sun altitude
Rises 18:45:19 0° 335° (NNW) 3,450 7.8 -21.8°
Reaches altitude 10° 18:47:48 10° 337° (NNW) 2,510 7.0 -22.3°
Maximum altitude 18:53:36 77° 64° (ENE) 888 4.1 -23.3°
Enters shadow 18:55:15 48° 139° (SE) 1,114 4.4 -23.6°
